Time,TemperatureF,DewpointF,PressureIn,WindDirection,WindDirectionDegrees,WindSpeedMPH,WindSpeedGustMPH,Humidity,HourlyPrecipIn,Conditions,Clouds,dailyrainin,SoftwareType,DateUTC
2013-02-05 00:00:00,68.2,56.8,31.04,ENE,77,1.0,3.0,67,0.00,,,0.00,Wunderground v.1.15,2013-02-05 05:00:00,
2013-02-05 00:02:00,68.1,56.7,31.04,East,86,1.0,3.0,67,0.00,,,0.00,Wunderground v.1.15,2013-02-05 05:02:00,
2013-02-05 00:03:00,68.2,56.8,31.04,East,99,1.0,3.0,67,0.00,,,0.00,Wunderground v.1.15,2013-02-05 05:03:00,
2013-02-05 00:04:00,68.1,56.7,31.04,East,84,1.0,3.0,67,0.00,,,0.00,Wunderground v.1.15,2013-02-05 05:04:00,
2013-02-05 00:10:00,68.1,56.3,31.04,East,100,1.0,3.0,66,0.00,,,0.00,Wunderground v.1.15,2013-02-05 05:10:00,
2013-02-05 00:16:00,68.3,56.9,31.04,East,89,2.0,3.0,67,0.00,,,0.00,Wunderground v.1.15,2013-02-05 05:16:00,
2013-02-05 00:22:00,68.2,56.8,31.04,East,97,2.0,3.0,67,0.00,,,0.00,Wunderground v.1.15,2013-02-05 05:22:00,
2013-02-05 00:28:00,68.1,57.1,31.04,East,85,1.0,3.0,68,0.00,,,0.00,Wunderground v.1.15,2013-02-05 05:28:00,
2013-02-05 00:34:00,68.0,57.0,31.04,East,99,1.0,3.0,68,0.00,,,0.00,Wunderground v.1.15,2013-02-05 05:34:00,
2013-02-05 00:40:00,67.6,57.1,31.04,East,99,0.0,3.0,69,0.00,,,0.00,Wunderground v.1.15,2013-02-05 05:40:00,
2013-02-05 00:45:00,67.2,57.1,31.04,East,89,0.0,3.0,70,0.00,,,0.00,Wunderground v.1.15,2013-02-05 05:45:00,
2013-02-05 00:51:00,67.3,57.2,31.04,ESE,111,1.0,3.0,70,0.00,,,0.00,Wunderground v.1.15,2013-02-05 05:51:00,
2013-02-05 00:57:00,66.9,57.2,31.04,ESE,111,0.0,3.0,71,0.00,,,0.00,Wunderground v.1.15,2013-02-05 05:57:00,
2013-02-05 01:02:00,66.5,56.8,31.04,ESE,111,0.0,3.0,71,0.00,,,0.00,Wunderground v.1.15,2013-02-05 06:02:00,
2013-02-05 01:08:00,66.0,57.1,31.04,ESE,111,0.0,3.0,73,0.00,,,0.00,Wunderground v.1.15,2013-02-05 06:08:00,
2013-02-05 01:14:00,65.6,57.1,31.04,ESE,111,0.0,3.0,74,0.00,,,0.00,Wunderground v.1.15,2013-02-05 06:14:00,
2013-02-05 01:20:00,65.6,57.5,31.03,ESE,111,0.0,3.0,75,0.00,,,0.00,Wunderground v.1.15,2013-02-05 06:20:00,
2013-02-05 01:25:00,65.6,57.5,31.03,ESE,111,0.0,3.0,75,0.00,,,0.00,Wunderground v.1.15,2013-02-05 06:25:00,
2013-02-05 01:31:00,65.5,57.4,31.03,ESE,111,0.0,3.0,75,0.00,,,0.00,Wunderground v.1.15,2013-02-05 06:31:00,
2013-02-05 01:37:00,65.3,57.5,31.03,ESE,111,0.0,3.0,76,0.00,,,0.00,Wunderground v.1.15,2013-02-05 06:37:00,
2013-02-05 01:43:00,65.5,58.8,31.03,NNE,18,0.0,3.0,79,0.00,,,0.00,Wunderground v.1.15,2013-02-05 06:43:00,
2013-02-05 01:49:00,65.8,59.8,31.03,NNE,24,0.0,3.0,81,0.00,,,0.00,Wunderground v.1.15,2013-02-05 06:49:00,
2013-02-05 01:55:00,65.8,60.2,31.03,NNE,12,0.0,3.0,82,0.00,,,0.00,Wunderground v.1.15,2013-02-05 06:55:00,
2013-02-05 02:01:00,65.4,60.1,31.02,North,355,1.0,3.0,83,0.00,,,0.00,Wunderground v.1.15,2013-02-05 07:01:00,
2013-02-05 02:06:00,65.1,59.8,31.02,NNE,12,0.0,3.0,83,0.00,,,0.00,Wunderground v.1.15,2013-02-05 07:06:00,
2013-02-05 02:11:00,64.9,59.9,31.02,NNE,12,0.0,3.0,84,0.00,,,0.00,Wunderground v.1.15,2013-02-05 07:11:00,
2013-02-05 02:17:00,64.6,59.7,31.02,NNE,18,0.0,3.0,84,0.00,,,0.00,Wunderground v.1.15,2013-02-05 07:17:00,
2013-02-05 02:23:00,64.3,59.7,31.02,NNE,19,0.0,3.0,85,0.00,,,0.00,Wunderground v.1.15,2013-02-05 07:23:00,
2013-02-05 02:28:00,64.0,59.4,31.02,NNE,18,0.0,3.0,85,0.00,,,0.00,Wunderground v.1.15,2013-02-05 07:28:00,
2013-02-05 02:34:00,63.9,59.6,31.02,NNE,18,0.0,3.0,86,0.00,,,0.00,Wunderground v.1.15,2013-02-05 07:34:00,
2013-02-05 02:40:00,63.5,59.2,31.01,NNE,18,0.0,3.0,86,0.00,,,0.00,Wunderground v.1.15,2013-02-05 07:40:00,
2013-02-05 02:46:00,63.4,59.5,31.01,NNE,18,0.0,3.0,87,0.00,,,0.00,Wunderground v.1.15,2013-02-05 07:46:00,
2013-02-05 02:51:00,63.3,59.4,31.01,NNE,18,0.0,3.0,87,0.00,,,0.00,Wunderground v.1.15,2013-02-05 07:51:00,
2013-02-05 02:57:00,63.2,58.9,31.01,NNE,20,0.0,3.0,86,0.00,,,0.00,Wunderground v.1.15,2013-02-05 07:57:00,
2013-02-05 03:02:00,63.1,58.5,31.01,NNE,22,0.0,3.0,85,0.00,,,0.00,Wunderground v.1.15,2013-02-05 08:02:00,
2013-02-05 03:08:00,63.1,58.5,31.01,NNE,26,0.0,3.0,85,0.00,,,0.00,Wunderground v.1.15,2013-02-05 08:08:00,
2013-02-05 03:13:00,63.1,58.2,31.01,NNE,29,0.0,3.0,84,0.00,,,0.00,Wunderground v.1.15,2013-02-05 08:13:00,
2013-02-05 03:19:00,63.2,58.3,31.01,ENE,65,0.0,3.0,84,0.00,,,0.00,Wunderground v.1.15,2013-02-05 08:19:00,
2013-02-05 03:25:00,63.1,58.2,31.01,NE,56,0.0,3.0,84,0.00,,,0.00,Wunderground v.1.15,2013-02-05 08:25:00,
2013-02-05 03:31:00,63.4,58.5,31.01,NNE,27,0.0,3.0,84,0.00,,,0.00,Wunderground v.1.15,2013-02-05 08:31:00,
2013-02-05 03:36:00,63.9,59.3,31.01,North,4,0.0,3.0,85,0.00,,,0.00,Wunderground v.1.15,2013-02-05 08:36:00,
2013-02-05 03:42:00,64.1,59.5,31.01,NNE,18,0.0,3.0,85,0.00,,,0.00,Wunderground v.1.15,2013-02-05 08:42:00,
2013-02-05 03:48:00,64.2,59.6,31.01,NE,41,1.0,3.0,85,0.00,,,0.00,Wunderground v.1.15,2013-02-05 08:48:00,
2013-02-05 03:54:00,64.3,59.7,31.02,NNE,26,1.0,3.0,85,0.00,,,0.00,Wunderground v.1.15,2013-02-05 08:54:00,
2013-02-05 03:59:00,64.3,59.4,31.02,North,8,0.0,3.0,84,0.00,,,0.00,Wunderground v.1.15,2013-02-05 08:59:00,
2013-02-05 04:05:00,64.4,59.1,31.02,NNW,335,0.0,3.0,83,0.00,,,0.00,Wunderground v.1.15,2013-02-05 09:05:00,
2013-02-05 04:11:00,64.7,59.1,31.02,NE,36,0.0,3.0,82,0.00,,,0.00,Wunderground v.1.15,2013-02-05 09:11:00,
2013-02-05 04:17:00,64.9,58.9,31.01,NNE,15,1.0,3.0,81,0.00,,,0.00,Wunderground v.1.15,2013-02-05 09:17:00,
2013-02-05 04:23:00,65.0,59.0,31.01,NNE,19,0.0,3.0,81,0.00,,,0.00,Wunderground v.1.15,2013-02-05 09:23:00,
2013-02-05 04:29:00,64.9,58.9,31.01,NNE,27,0.0,3.0,81,0.00,,,0.00,Wunderground v.1.15,2013-02-05 09:29:00,
2013-02-05 04:35:00,65.0,59.7,31.02,NNE,16,1.0,3.0,83,0.00,,,0.00,Wunderground v.1.15,2013-02-05 09:35:00,
2013-02-05 04:40:00,65.1,59.8,31.01,North,359,1.0,1.0,83,0.00,,,0.00,Wunderground v.1.15,2013-02-05 09:40:00,
2013-02-05 04:46:00,65.0,60.0,31.01,North,359,0.0,3.0,84,0.00,,,0.00,Wunderground v.1.15,2013-02-05 09:46:00,
2013-02-05 04:52:00,64.7,59.8,31.01,NE,36,0.0,3.0,84,0.00,,,0.00,Wunderground v.1.15,2013-02-05 09:52:00,
2013-02-05 04:58:00,64.6,59.3,31.00,North,11,1.0,3.0,83,0.00,,,0.00,Wunderground v.1.15,2013-02-05 09:58:00,
2013-02-05 05:04:00,64.6,59.0,31.00,NNE,25,1.0,3.0,82,0.00,,,0.00,Wunderground v.1.15,2013-02-05 10:04:00,
2013-02-05 05:10:00,64.9,58.9,31.00,NNE,13,2.0,3.0,81,0.00,,,0.00,Wunderground v.1.15,2013-02-05 10:10:00,
2013-02-05 05:16:00,65.1,58.8,31.00,NE,34,2.0,5.0,80,0.00,,,0.00,Wunderground v.1.15,2013-02-05 10:16:00,
2013-02-05 05:22:00,65.1,58.8,31.00,NE,34,2.0,3.0,80,0.00,,,0.00,Wunderground v.1.15,2013-02-05 10:22:00,
2013-02-05 05:27:00,65.0,58.7,31.00,North,349,1.0,3.0,80,0.00,,,0.00,Wunderground v.1.15,2013-02-05 10:27:00,
2013-02-05 05:33:00,65.0,58.7,31.00,ESE,103,1.0,3.0,80,0.00,,,0.00,Wunderground v.1.15,2013-02-05 10:33:00,
2013-02-05 05:39:00,65.0,58.7,31.00,ESE,120,1.0,3.0,80,0.00,,,0.00,Wunderground v.1.15,2013-02-05 10:39:00,
2013-02-05 05:45:00,65.0,58.3,31.00,NE,41,2.0,3.0,79,0.00,,,0.00,Wunderground v.1.15,2013-02-05 10:45:00,
2013-02-05 05:51:00,65.1,58.4,31.00,East,91,2.0,3.0,79,0.00,,,0.00,Wunderground v.1.15,2013-02-05 10:51:00,
2013-02-05 05:57:00,65.1,58.4,31.01,NNE,33,1.0,5.0,79,0.00,,,0.00,Wunderground v.1.15,2013-02-05 10:57:00,
2013-02-05 06:02:00,65.1,58.4,31.01,ENE,57,1.0,3.0,79,0.00,,,0.00,Wunderground v.1.15,2013-02-05 11:02:00,
2013-02-05 06:08:00,65.0,58.3,31.02,NNE,27,0.0,3.0,79,0.00,,,0.00,Wunderground v.1.15,2013-02-05 11:08:00,
2013-02-05 06:14:00,65.0,58.3,31.02,ENE,65,1.0,3.0,79,0.00,,,0.00,Wunderground v.1.15,2013-02-05 11:14:00,
2013-02-05 06:20:00,64.9,58.2,31.02,WNW,295,0.0,3.0,79,0.00,,,0.00,Wunderground v.1.15,2013-02-05 11:20:00,
2013-02-05 06:25:00,64.8,58.5,31.02,East,82,0.0,3.0,80,0.00,,,0.00,Wunderground v.1.15,2013-02-05 11:25:00,
2013-02-05 06:31:00,64.7,58.4,31.01,East,82,0.0,3.0,80,0.00,,,0.00,Wunderground v.1.15,2013-02-05 11:31:00,
2013-02-05 06:37:00,64.5,58.5,31.02,ESE,103,0.0,3.0,81,0.00,,,0.00,Wunderground v.1.15,2013-02-05 11:37:00,
2013-02-05 06:43:00,64.3,58.7,31.02,East,82,0.0,3.0,82,0.00,,,0.00,Wunderground v.1.15,2013-02-05 11:43:00,
2013-02-05 06:49:00,64.1,58.5,31.02,East,82,0.0,3.0,82,0.00,,,0.00,Wunderground v.1.15,2013-02-05 11:49:00,
2013-02-05 06:55:00,63.9,58.6,31.03,East,82,0.0,3.0,83,0.00,,,0.00,Wunderground v.1.15,2013-02-05 11:55:00,
2013-02-05 07:01:00,63.8,58.9,31.03,East,82,0.0,3.0,84,0.00,,,0.00,Wunderground v.1.15,2013-02-05 12:01:00,
2013-02-05 07:06:00,63.8,58.9,31.03,East,88,0.0,3.0,84,0.00,,,0.00,Wunderground v.1.15,2013-02-05 12:06:00,
2013-02-05 07:12:00,63.9,59.0,31.03,East,98,0.0,3.0,84,0.00,,,0.00,Wunderground v.1.15,2013-02-05 12:12:00,
2013-02-05 07:18:00,64.0,58.7,31.03,East,94,0.0,3.0,83,0.00,,,0.00,Wunderground v.1.15,2013-02-05 12:18:00,
2013-02-05 07:24:00,63.9,58.6,31.03,East,88,0.0,3.0,83,0.00,,,0.00,Wunderground v.1.15,2013-02-05 12:24:00,
2013-02-05 07:29:00,64.5,59.2,31.03,East,96,0.0,3.0,83,0.00,,,0.00,Wunderground v.1.15,2013-02-05 12:29:00,
2013-02-05 07:35:00,64.8,59.5,31.03,East,101,0.0,3.0,83,0.00,,,0.00,Wunderground v.1.15,2013-02-05 12:35:00,
2013-02-05 07:41:00,65.7,60.4,31.03,ESE,103,1.0,3.0,83,0.00,,,0.00,Wunderground v.1.15,2013-02-05 12:41:00,
2013-02-05 07:47:00,66.8,61.1,31.03,East,97,1.0,3.0,82,0.00,,,0.00,Wunderground v.1.15,2013-02-05 12:47:00,
2013-02-05 07:53:00,67.9,61.9,31.03,East,82,2.0,3.0,81,0.00,,,0.00,Wunderground v.1.15,2013-02-05 12:53:00,
2013-02-05 07:59:00,68.8,62.4,31.03,ENE,66,2.0,4.0,80,0.00,,,0.00,Wunderground v.1.15,2013-02-05 12:59:00,
2013-02-05 08:05:00,69.6,61.7,31.03,ESE,105,2.0,3.0,76,0.00,,,0.00,Wunderground v.1.15,2013-02-05 13:05:00,
2013-02-05 08:10:00,70.6,61.9,31.03,SE,141,2.0,3.0,74,0.00,,,0.00,Wunderground v.1.15,2013-02-05 13:10:00,
2013-02-05 08:16:00,71.4,61.5,31.03,ESE,103,3.0,4.0,71,0.00,,,0.00,Wunderground v.1.15,2013-02-05 13:16:00,
2013-02-05 08:22:00,71.9,62.4,31.04,ESE,111,3.0,5.0,72,0.00,,,0.00,Wunderground v.1.15,2013-02-05 13:22:00,
2013-02-05 08:28:00,72.3,63.5,31.03,ESE,109,4.0,6.0,74,0.00,,,0.00,Wunderground v.1.15,2013-02-05 13:28:00,
2013-02-05 08:34:00,72.4,62.9,31.03,ESE,117,4.0,4.0,72,0.00,,,0.00,Wunderground v.1.15,2013-02-05 13:34:00,
2013-02-05 08:40:00,72.7,63.1,31.04,East,100,3.0,5.0,72,0.00,,,0.00,Wunderground v.1.15,2013-02-05 13:40:00,
2013-02-05 08:46:00,73.0,62.6,31.04,East,96,3.0,5.0,70,0.00,,,0.00,Wunderground v.1.15,2013-02-05 13:46:00,
2013-02-05 08:52:00,72.9,62.9,31.05,East,84,3.0,4.0,71,0.00,,,0.00,Wunderground v.1.15,2013-02-05 13:52:00,
2013-02-05 08:57:00,73.2,63.6,31.04,ENE,77,3.0,4.0,72,0.00,,,0.00,Wunderground v.1.15,2013-02-05 13:57:00,
2013-02-05 09:02:00,73.2,63.2,31.04,East,85,4.0,8.0,71,0.00,,,0.00,Wunderground v.1.15,2013-02-05 14:02:00,
2013-02-05 09:08:00,73.2,63.2,31.04,SE,142,4.0,8.0,71,0.00,,,0.00,Wunderground v.1.15,2013-02-05 14:08:00,
2013-02-05 09:14:00,73.3,62.5,31.05,ESE,115,4.0,5.0,69,0.00,,,0.00,Wunderground v.1.15,2013-02-05 14:14:00,
2013-02-05 09:19:00,73.4,63.0,31.05,ESE,108,4.0,7.0,70,0.00,,,0.00,Wunderground v.1.15,2013-02-05 14:19:00,
2013-02-05 09:25:00,73.6,62.8,31.05,East,94,4.0,5.0,69,0.00,,,0.00,Wunderground v.1.15,2013-02-05 14:25:00,
2013-02-05 09:30:00,74.0,62.8,31.05,East,101,3.0,6.0,68,0.00,,,0.00,Wunderground v.1.15,2013-02-05 14:30:00,
2013-02-05 09:36:00,74.1,62.4,31.05,East,97,3.0,6.0,67,0.00,,,0.00,Wunderground v.1.15,2013-02-05 14:36:00,
2013-02-05 09:42:00,74.2,62.1,31.05,East,101,4.0,5.0,66,0.00,,,0.00,Wunderground v.1.15,2013-02-05 14:42:00,
2013-02-05 09:48:00,74.3,63.1,31.05,SE,129,4.0,6.0,68,0.00,,,0.00,Wunderground v.1.15,2013-02-05 14:48:00,
2013-02-05 09:54:00,74.2,63.4,31.06,ESE,102,4.0,5.0,69,0.00,,,0.00,Wunderground v.1.15,2013-02-05 14:54:00,
2013-02-05 10:00:00,74.0,63.6,31.06,ESE,115,5.0,5.0,70,0.00,,,0.00,Wunderground v.1.15,2013-02-05 15:00:00,
2013-02-05 10:05:00,74.1,64.1,31.06,ESE,118,5.0,7.0,71,0.00,,,0.00,Wunderground v.1.15,2013-02-05 15:05:00,
2013-02-05 10:11:00,74.2,63.8,31.06,ENE,77,5.0,5.0,70,0.00,,,0.00,Wunderground v.1.15,2013-02-05 15:11:00,
2013-02-05 10:17:00,74.6,63.8,31.05,East,97,5.0,6.0,69,0.00,,,0.00,Wunderground v.1.15,2013-02-05 15:17:00,
2013-02-05 10:23:00,74.7,63.4,31.06,ESE,104,4.0,5.0,68,0.00,,,0.00,Wunderground v.1.15,2013-02-05 15:23:00,
2013-02-05 10:29:00,74.9,63.6,31.06,SSE,147,4.0,8.0,68,0.00,,,0.00,Wunderground v.1.15,2013-02-05 15:29:00,
2013-02-05 10:35:00,75.3,64.4,31.05,ESE,108,3.0,4.0,69,0.00,,,0.00,Wunderground v.1.15,2013-02-05 15:35:00,
2013-02-05 10:41:00,75.8,64.5,31.05,SE,125,3.0,3.0,68,0.00,,,0.00,Wunderground v.1.15,2013-02-05 15:41:00,
2013-02-05 10:47:00,75.7,63.5,31.05,ESE,120,4.0,6.0,66,0.00,,,0.00,Wunderground v.1.15,2013-02-05 15:47:00,
2013-02-05 10:52:00,75.8,63.6,31.05,East,79,4.0,6.0,66,0.00,,,0.00,Wunderground v.1.15,2013-02-05 15:52:00,
2013-02-05 10:58:00,76.0,64.2,31.05,ESE,110,4.0,6.0,67,0.00,,,0.00,Wunderground v.1.15,2013-02-05 15:58:00,
2013-02-05 11:04:00,76.1,63.5,31.05,East,96,3.0,5.0,65,0.00,,,0.00,Wunderground v.1.15,2013-02-05 16:04:00,
2013-02-05 11:09:00,76.1,63.9,31.05,East,84,4.0,6.0,66,0.00,,,0.00,Wunderground v.1.15,2013-02-05 16:09:00,
2013-02-05 11:15:00,76.0,63.8,31.05,ESE,114,4.0,6.0,66,0.00,,,0.00,Wunderground v.1.15,2013-02-05 16:15:00,
2013-02-05 11:21:00,75.6,63.4,31.04,SE,127,4.0,4.0,66,0.00,,,0.00,Wunderground v.1.15,2013-02-05 16:21:00,
2013-02-05 11:26:00,75.2,63.5,31.04,SE,132,4.0,5.0,67,0.00,,,0.00,Wunderground v.1.15,2013-02-05 16:26:00,
2013-02-05 11:31:00,75.5,63.3,31.04,SE,131,3.0,4.0,66,0.00,,,0.00,Wunderground v.1.15,2013-02-05 16:31:00,
2013-02-05 11:36:00,75.7,63.5,31.04,NE,46,4.0,5.0,66,0.00,,,0.00,Wunderground v.1.15,2013-02-05 16:36:00,
2013-02-05 11:42:00,75.7,63.5,31.04,East,79,4.0,5.0,66,0.00,,,0.00,Wunderground v.1.15,2013-02-05 16:42:00,
2013-02-05 11:48:00,76.4,64.2,31.04,ESE,103,4.0,5.0,66,0.00,,,0.00,Wunderground v.1.15,2013-02-05 16:48:00,
2013-02-05 11:53:00,76.5,64.3,31.04,East,86,4.0,7.0,66,0.00,,,0.00,Wunderground v.1.15,2013-02-05 16:53:00,
2013-02-05 11:59:00,76.8,64.6,31.04,ESE,114,3.0,7.0,66,0.00,,,0.00,Wunderground v.1.15,2013-02-05 16:59:00,
2013-02-05 12:04:00,76.7,63.2,31.04,ENE,66,3.0,4.0,63,0.00,,,0.00,Wunderground v.1.15,2013-02-05 17:04:00,
2013-02-05 12:10:00,76.1,63.5,31.03,East,101,3.0,3.0,65,0.00,,,0.00,Wunderground v.1.15,2013-02-05 17:10:00,
2013-02-05 12:16:00,76.5,63.9,31.03,ESE,102,3.0,4.0,65,0.00,,,0.00,Wunderground v.1.15,2013-02-05 17:16:00,
2013-02-05 12:21:00,76.7,62.2,31.03,SE,124,3.0,6.0,61,0.00,,,0.00,Wunderground v.1.15,2013-02-05 17:21:00,
2013-02-05 12:27:00,76.4,62.4,31.03,ESE,123,4.0,6.0,62,0.00,,,0.00,Wunderground v.1.15,2013-02-05 17:27:00,
2013-02-05 12:33:00,76.5,63.9,31.03,ESE,110,3.0,4.0,65,0.00,,,0.00,Wunderground v.1.15,2013-02-05 17:33:00,
2013-02-05 12:38:00,76.0,63.4,31.03,East,84,4.0,5.0,65,0.00,,,0.00,Wunderground v.1.15,2013-02-05 17:38:00,
2013-02-05 12:44:00,76.2,63.6,31.03,SE,132,3.0,4.0,65,0.00,,,0.00,Wunderground v.1.15,2013-02-05 17:44:00,
2013-02-05 12:50:00,76.3,63.7,31.02,ENE,76,3.0,3.0,65,0.00,,,0.00,Wunderground v.1.15,2013-02-05 17:50:00,
2013-02-05 12:56:00,76.0,63.4,31.02,ESE,118,3.0,4.0,65,0.00,,,0.00,Wunderground v.1.15,2013-02-05 17:56:00,
2013-02-05 13:01:00,75.8,63.6,31.02,East,82,4.0,4.0,66,0.00,,,0.00,Wunderground v.1.15,2013-02-05 18:01:00,
2013-02-05 13:06:00,75.9,64.2,31.02,ESE,103,4.0,4.0,67,0.00,,,0.00,Wunderground v.1.15,2013-02-05 18:06:00,
2013-02-05 13:12:00,77.0,64.8,31.01,ESE,119,4.0,4.0,66,0.00,,,0.00,Wunderground v.1.15,2013-02-05 18:12:00,
2013-02-05 13:17:00,77.2,64.1,31.01,ESE,105,4.0,5.0,64,0.00,,,0.00,Wunderground v.1.15,2013-02-05 18:17:00,
2013-02-05 13:22:00,77.2,64.5,31.00,SSE,149,4.0,4.0,65,0.00,,,0.00,Wunderground v.1.15,2013-02-05 18:22:00,
2013-02-05 13:28:00,76.8,64.1,31.00,ESE,103,4.0,4.0,65,0.00,,,0.00,Wunderground v.1.15,2013-02-05 18:28:00,
2013-02-05 13:34:00,76.6,64.4,31.00,SE,124,4.0,4.0,66,0.00,,,0.00,Wunderground v.1.15,2013-02-05 18:34:00,
2013-02-05 13:39:00,76.6,64.0,31.00,East,93,4.0,6.0,65,0.00,,,0.00,Wunderground v.1.15,2013-02-05 18:39:00,
2013-02-05 13:45:00,76.8,64.1,31.00,ESE,122,4.0,6.0,65,0.00,,,0.00,Wunderground v.1.15,2013-02-05 18:45:00,
2013-02-05 13:51:00,77.2,64.5,30.99,ESE,116,4.0,4.0,65,0.00,,,0.00,Wunderground v.1.15,2013-02-05 18:51:00,
2013-02-05 13:57:00,76.9,64.2,30.99,ESE,117,3.0,5.0,65,0.00,,,0.00,Wunderground v.1.15,2013-02-05 18:57:00,
2013-02-05 14:02:00,76.1,64.3,30.99,East,95,4.0,5.0,67,0.00,,,0.00,Wunderground v.1.15,2013-02-05 19:02:00,
2013-02-05 14:08:00,75.9,64.6,30.99,SE,136,4.0,5.0,68,0.00,,,0.00,Wunderground v.1.15,2013-02-05 19:08:00,
2013-02-05 14:14:00,75.7,64.4,30.99,ESE,120,3.0,4.0,68,0.00,,,0.00,Wunderground v.1.15,2013-02-05 19:14:00,
2013-02-05 14:19:00,75.8,64.5,30.99,East,83,3.0,4.0,68,0.00,,,0.00,Wunderground v.1.15,2013-02-05 19:19:00,
2013-02-05 14:25:00,76.0,64.7,30.99,ESE,122,3.0,3.0,68,0.00,,,0.00,Wunderground v.1.15,2013-02-05 19:25:00,
2013-02-05 14:31:00,75.8,64.5,30.99,ESE,104,3.0,4.0,68,0.00,,,0.00,Wunderground v.1.15,2013-02-05 19:31:00,
2013-02-05 14:37:00,75.9,64.6,30.99,East,84,3.0,4.0,68,0.00,,,0.00,Wunderground v.1.15,2013-02-05 19:37:00,
2013-02-05 14:42:00,76.5,65.1,30.99,SSE,148,3.0,3.0,68,0.00,,,0.00,Wunderground v.1.15,2013-02-05 19:42:00,
2013-02-05 14:47:00,76.8,65.0,30.99,SSE,164,3.0,4.0,67,0.00,,,0.00,Wunderground v.1.15,2013-02-05 19:47:00,
2013-02-05 14:53:00,77.0,64.8,30.99,East,86,4.0,4.0,66,0.00,,,0.00,Wunderground v.1.15,2013-02-05 19:53:00,
2013-02-05 14:59:00,77.5,65.2,30.99,SE,129,4.0,4.0,66,0.00,,,0.00,Wunderground v.1.15,2013-02-05 19:59:00,
2013-02-05 15:04:00,76.9,64.7,30.99,SE,129,3.0,4.0,66,0.00,,,0.00,Wunderground v.1.15,2013-02-05 20:04:00,
2013-02-05 15:09:00,76.5,65.1,30.99,ESE,115,3.0,5.0,68,0.00,,,0.00,Wunderground v.1.15,2013-02-05 20:09:00,
2013-02-05 15:14:00,76.4,65.1,30.99,East,96,2.0,4.0,68,0.00,,,0.00,Wunderground v.1.15,2013-02-05 20:14:00,
2013-02-05 15:19:00,76.3,65.0,30.99,ESE,115,2.0,4.0,68,0.00,,,0.00,Wunderground v.1.15,2013-02-05 20:19:00,
2013-02-05 15:25:00,75.9,64.6,30.99,SE,142,2.0,3.0,68,0.00,,,0.00,Wunderground v.1.15,2013-02-05 20:25:00,
2013-02-05 15:31:00,75.9,65.0,30.99,ESE,117,2.0,3.0,69,0.00,,,0.00,Wunderground v.1.15,2013-02-05 20:31:00,
2013-02-05 15:37:00,75.5,64.6,30.99,ESE,119,2.0,4.0,69,0.00,,,0.00,Wunderground v.1.15,2013-02-05 20:37:00,
2013-02-05 15:42:00,75.4,64.5,30.99,East,89,3.0,4.0,69,0.00,,,0.00,Wunderground v.1.15,2013-02-05 20:42:00,
2013-02-05 15:47:00,75.4,65.3,30.99,SSE,150,2.0,6.0,71,0.00,,,0.00,Wunderground v.1.15,2013-02-05 20:47:00,
2013-02-05 15:53:00,74.9,64.9,30.98,SE,125,3.0,6.0,71,0.00,,,0.00,Wunderground v.1.15,2013-02-05 20:53:00,
2013-02-05 15:59:00,74.7,64.3,30.98,SE,124,4.0,6.0,70,0.00,,,0.00,Wunderground v.1.15,2013-02-05 20:59:00,
2013-02-05 16:04:00,74.7,64.7,30.98,ESE,110,3.0,4.0,71,0.00,,,0.00,Wunderground v.1.15,2013-02-05 21:04:00,
2013-02-05 16:10:00,74.9,65.3,30.98,SSE,159,3.0,3.0,72,0.00,,,0.00,Wunderground v.1.15,2013-02-05 21:10:00,
2013-02-05 16:15:00,75.5,65.4,30.98,ESE,120,3.0,4.0,71,0.00,,,0.00,Wunderground v.1.15,2013-02-05 21:15:00,
2013-02-05 16:20:00,75.6,65.1,30.98,SE,141,3.0,3.0,70,0.00,,,0.00,Wunderground v.1.15,2013-02-05 21:20:00,
2013-02-05 16:26:00,75.1,64.6,30.98,East,98,3.0,6.0,70,0.00,,,0.00,Wunderground v.1.15,2013-02-05 21:26:00,
2013-02-05 16:32:00,74.6,64.6,30.98,ESE,113,4.0,4.0,71,0.00,,,0.00,Wunderground v.1.15,2013-02-05 21:32:00,
2013-02-05 16:37:00,74.7,64.7,30.98,SSE,150,3.0,4.0,71,0.00,,,0.00,Wunderground v.1.15,2013-02-05 21:37:00,
2013-02-05 16:43:00,74.8,65.2,30.98,ESE,112,3.0,3.0,72,0.00,,,0.00,Wunderground v.1.15,2013-02-05 21:43:00,
2013-02-05 16:48:00,75.0,65.4,30.98,ESE,120,3.0,3.0,72,0.00,,,0.00,Wunderground v.1.15,2013-02-05 21:48:00,
2013-02-05 16:54:00,74.6,65.8,30.98,SE,127,3.0,4.0,74,0.00,,,0.00,Wunderground v.1.15,2013-02-05 21:54:00,
2013-02-05 16:59:00,74.2,65.4,30.98,SE,141,3.0,5.0,74,0.00,,,0.00,Wunderground v.1.15,2013-02-05 21:59:00,
2013-02-05 17:05:00,74.4,65.2,30.98,East,93,3.0,3.0,73,0.00,,,0.00,Wunderground v.1.15,2013-02-05 22:05:00,
2013-02-05 17:11:00,74.7,65.1,30.98,ESE,107,2.0,4.0,72,0.00,,,0.00,Wunderground v.1.15,2013-02-05 22:11:00,
2013-02-05 17:17:00,74.8,65.6,30.98,ESE,108,2.0,4.0,73,0.00,,,0.00,Wunderground v.1.15,2013-02-05 22:17:00,
2013-02-05 17:23:00,75.0,66.1,30.98,East,94,2.0,4.0,74,0.00,,,0.00,Wunderground v.1.15,2013-02-05 22:23:00,
2013-02-05 17:29:00,74.9,66.1,30.98,SSE,164,2.0,4.0,74,0.00,,,0.00,Wunderground v.1.15,2013-02-05 22:29:00,
2013-02-05 17:35:00,74.7,65.9,30.98,SE,132,3.0,3.0,74,0.00,,,0.00,Wunderground v.1.15,2013-02-05 22:35:00,
2013-02-05 17:41:00,74.2,65.8,30.98,ESE,112,3.0,5.0,75,0.00,,,0.00,Wunderground v.1.15,2013-02-05 22:41:00,
2013-02-05 17:47:00,73.9,65.5,30.99,East,94,3.0,5.0,75,0.00,,,0.00,Wunderground v.1.15,2013-02-05 22:47:00,
2013-02-05 17:52:00,73.7,65.7,30.99,SE,129,3.0,3.0,76,0.00,,,0.00,Wunderground v.1.15,2013-02-05 22:52:00,
2013-02-05 17:58:00,73.4,65.0,30.98,East,92,3.0,4.0,75,0.00,,,0.00,Wunderground v.1.15,2013-02-05 22:58:00,
2013-02-05 18:03:00,73.3,64.9,30.98,ENE,77,3.0,4.0,75,0.00,,,0.00,Wunderground v.1.15,2013-02-05 23:03:00,
2013-02-05 18:09:00,73.3,65.3,30.98,East,82,2.0,4.0,76,0.00,,,0.00,Wunderground v.1.15,2013-02-05 23:09:00,
2013-02-05 18:14:00,73.2,65.6,30.99,SE,139,2.0,3.0,77,0.00,,,0.00,Wunderground v.1.15,2013-02-05 23:14:00,
2013-02-05 18:20:00,73.1,65.8,30.99,SSE,150,2.0,2.0,78,0.00,,,0.00,Wunderground v.1.15,2013-02-05 23:20:00,
2013-02-05 18:26:00,72.9,65.6,30.99,ESE,103,2.0,3.0,78,0.00,,,0.00,Wunderground v.1.15,2013-02-05 23:26:00,
2013-02-05 18:32:00,72.8,65.5,30.98,SE,132,2.0,3.0,78,0.00,,,0.00,Wunderground v.1.15,2013-02-05 23:32:00,
2013-02-05 18:37:00,72.7,65.8,30.99,SE,131,2.0,3.0,79,0.00,,,0.00,Wunderground v.1.15,2013-02-05 23:37:00,
2013-02-05 18:43:00,72.6,65.3,30.99,ESE,108,2.0,3.0,78,0.00,,,0.00,Wunderground v.1.15,2013-02-05 23:43:00,
2013-02-05 18:49:00,72.5,65.2,30.99,East,98,2.0,4.0,78,0.00,,,0.00,Wunderground v.1.15,2013-02-05 23:49:00,
2013-02-05 18:55:00,72.5,65.2,30.99,East,81,2.0,3.0,78,0.00,,,0.00,Wunderground v.1.15,2013-02-05 23:55:00,
2013-02-05 19:00:00,72.5,65.2,30.99,ESE,109,2.0,3.0,78,0.00,,,0.00,Wunderground v.1.15,2013-02-06 00:00:00,
2013-02-05 19:06:00,72.4,65.2,30.99,ESE,110,2.0,3.0,78,0.00,,,0.00,Wunderground v.1.15,2013-02-06 00:06:00,
2013-02-05 19:12:00,72.4,65.5,30.99,SE,126,1.0,3.0,79,0.00,,,0.00,Wunderground v.1.15,2013-02-06 00:12:00,
2013-02-05 19:18:00,72.5,66.0,30.99,ESE,117,1.0,3.0,80,0.00,,,0.00,Wunderground v.1.15,2013-02-06 00:18:00,
2013-02-05 19:24:00,72.3,65.8,30.99,East,93,1.0,3.0,80,0.00,,,0.00,Wunderground v.1.15,2013-02-06 00:24:00,
2013-02-05 19:30:00,72.2,65.7,31.00,SE,136,2.0,3.0,80,0.00,,,0.00,Wunderground v.1.15,2013-02-06 00:30:00,
2013-02-05 19:36:00,72.3,65.4,31.00,SE,144,2.0,3.0,79,0.00,,,0.00,Wunderground v.1.15,2013-02-06 00:36:00,
2013-02-05 19:42:00,72.3,65.8,31.00,SE,143,2.0,3.0,80,0.00,,,0.00,Wunderground v.1.15,2013-02-06 00:42:00,
2013-02-05 19:48:00,72.2,65.7,31.00,ESE,120,1.0,3.0,80,0.00,,,0.00,Wunderground v.1.15,2013-02-06 00:48:00,
2013-02-05 19:54:00,72.3,65.8,31.00,East,101,2.0,3.0,80,0.00,,,0.00,Wunderground v.1.15,2013-02-06 00:54:00,
2013-02-05 20:00:00,72.4,65.9,31.00,NE,53,2.0,2.0,80,0.00,,,0.00,Wunderground v.1.15,2013-02-06 01:00:00,
2013-02-05 20:06:00,72.3,66.1,31.01,ESE,121,2.0,3.0,81,0.00,,,0.00,Wunderground v.1.15,2013-02-06 01:06:00,
2013-02-05 20:11:00,72.2,65.7,31.01,East,86,2.0,3.0,80,0.00,,,0.00,Wunderground v.1.15,2013-02-06 01:11:00,
2013-02-05 20:17:00,72.1,65.2,31.01,SE,135,1.0,3.0,79,0.00,,,0.00,Wunderground v.1.15,2013-02-06 01:17:00,
2013-02-05 20:23:00,71.9,65.4,31.01,SSE,157,1.0,3.0,80,0.00,,,0.00,Wunderground v.1.15,2013-02-06 01:23:00,
2013-02-05 20:29:00,71.8,65.3,31.01,SE,125,1.0,3.0,80,0.00,,,0.00,Wunderground v.1.15,2013-02-06 01:29:00,
2013-02-05 20:34:00,71.7,65.2,31.01,ESE,105,1.0,3.0,80,0.00,,,0.00,Wunderground v.1.15,2013-02-06 01:34:00,
2013-02-05 20:39:00,71.7,65.2,31.01,SE,129,1.0,3.0,80,0.00,,,0.00,Wunderground v.1.15,2013-02-06 01:39:00,
2013-02-05 20:45:00,71.7,65.2,31.01,SE,136,1.0,3.0,80,0.00,,,0.00,Wunderground v.1.15,2013-02-06 01:45:00,
2013-02-05 20:50:00,71.6,65.1,31.01,ESE,113,1.0,3.0,80,0.00,,,0.00,Wunderground v.1.15,2013-02-06 01:50:00,
2013-02-05 20:56:00,71.7,64.8,31.01,East,86,1.0,3.0,79,0.00,,,0.00,Wunderground v.1.15,2013-02-06 01:56:00,
2013-02-05 21:01:00,71.8,64.6,31.01,SE,131,2.0,3.0,78,0.00,,,0.00,Wunderground v.1.15,2013-02-06 02:01:00,
2013-02-05 21:07:00,72.0,65.1,31.01,ESE,117,2.0,3.0,79,0.00,,,0.00,Wunderground v.1.15,2013-02-06 02:07:00,
2013-02-05 21:12:00,72.1,65.6,31.01,SE,127,2.0,3.0,80,0.00,,,0.00,Wunderground v.1.15,2013-02-06 02:12:00,
2013-02-05 21:18:00,72.1,65.6,31.00,SE,139,2.0,3.0,80,0.00,,,0.00,Wunderground v.1.15,2013-02-06 02:18:00,
2013-02-05 21:24:00,72.3,66.1,31.00,SE,138,3.0,4.0,81,0.00,,,0.00,Wunderground v.1.15,2013-02-06 02:24:00,
2013-02-05 21:29:00,72.2,66.0,31.01,SE,125,2.0,4.0,81,0.00,,,0.00,Wunderground v.1.15,2013-02-06 02:29:00,
2013-02-05 21:35:00,72.2,66.0,31.00,East,91,2.0,4.0,81,0.00,,,0.00,Wunderground v.1.15,2013-02-06 02:35:00,
2013-02-05 21:40:00,72.3,66.1,31.01,ESE,102,2.0,3.0,81,0.00,,,0.00,Wunderground v.1.15,2013-02-06 02:40:00,
2013-02-05 21:46:00,72.3,66.1,31.01,ESE,105,2.0,4.0,81,0.00,,,0.00,Wunderground v.1.15,2013-02-06 02:46:00,
2013-02-05 21:51:00,72.2,66.0,31.01,ESE,123,3.0,5.0,81,0.00,,,0.00,Wunderground v.1.15,2013-02-06 02:51:00,
2013-02-05 21:57:00,72.2,65.7,31.01,ESE,117,3.0,6.0,80,0.00,,,0.00,Wunderground v.1.15,2013-02-06 02:57:00,
2013-02-05 22:02:00,72.1,65.6,31.01,East,96,2.0,3.0,80,0.00,,,0.00,Wunderground v.1.15,2013-02-06 03:02:00,
2013-02-05 22:08:00,72.1,65.6,31.01,SE,145,2.0,3.0,80,0.00,,,0.00,Wunderground v.1.15,2013-02-06 03:08:00,
2013-02-05 22:14:00,72.1,65.9,31.01,SE,136,2.0,3.0,81,0.00,,,0.00,Wunderground v.1.15,2013-02-06 03:14:00,
2013-02-05 22:19:00,72.0,65.8,31.01,SE,136,1.0,3.0,81,0.00,,,0.00,Wunderground v.1.15,2013-02-06 03:19:00,
2013-02-05 22:25:00,71.8,65.7,31.01,ESE,105,1.0,3.0,81,0.00,,,0.00,Wunderground v.1.15,2013-02-06 03:25:00,
2013-02-05 22:31:00,71.6,65.5,31.02,ESE,117,0.0,3.0,81,0.00,,,0.00,Wunderground v.1.15,2013-02-06 03:31:00,
2013-02-05 22:37:00,71.6,65.8,31.02,ESE,117,0.0,3.0,82,0.00,,,0.00,Wunderground v.1.15,2013-02-06 03:37:00,
2013-02-05 22:43:00,71.6,65.8,31.02,ESE,108,1.0,3.0,82,0.00,,,0.00,Wunderground v.1.15,2013-02-06 03:43:00,
2013-02-05 22:48:00,71.5,65.7,31.02,SE,139,1.0,3.0,82,0.00,,,0.00,Wunderground v.1.15,2013-02-06 03:48:00,
2013-02-05 22:54:00,71.3,65.9,31.02,ESE,119,0.0,3.0,83,0.00,,,0.00,Wunderground v.1.15,2013-02-06 03:54:00,
2013-02-05 23:00:00,71.1,65.7,31.02,East,91,0.0,3.0,83,0.00,,,0.00,Wunderground v.1.15,2013-02-06 04:00:00,
2013-02-05 23:06:00,71.0,65.6,31.02,East,101,0.0,3.0,83,0.00,,,0.00,Wunderground v.1.15,2013-02-06 04:06:00,
2013-02-05 23:12:00,71.1,66.0,31.01,East,94,0.0,3.0,84,0.00,,,0.00,Wunderground v.1.15,2013-02-06 04:12:00,
2013-02-05 23:17:00,71.1,65.7,31.01,ESE,117,0.0,3.0,83,0.00,,,0.00,Wunderground v.1.15,2013-02-06 04:17:00,
2013-02-05 23:23:00,71.0,65.6,31.01,East,89,0.0,3.0,83,0.00,,,0.00,Wunderground v.1.15,2013-02-06 04:23:00,
2013-02-05 23:29:00,71.1,65.7,31.01,East,96,1.0,3.0,83,0.00,,,0.00,Wunderground v.1.15,2013-02-06 04:29:00,
2013-02-05 23:35:00,71.2,65.8,31.01,East,91,1.0,3.0,83,0.00,,,0.00,Wunderground v.1.15,2013-02-06 04:35:00,
2013-02-05 23:41:00,71.0,65.9,31.01,East,94,0.0,3.0,84,0.00,,,0.00,Wunderground v.1.15,2013-02-06 04:41:00,
2013-02-05 23:46:00,70.8,66.1,31.01,East,94,0.0,3.0,85,0.00,,,0.00,Wunderground v.1.15,2013-02-06 04:46:00,
2013-02-05 23:52:00,70.7,66.0,31.01,East,94,0.0,3.0,85,0.00,,,0.00,Wunderground v.1.15,2013-02-06 04:52:00,
2013-02-05 23:58:00,70.8,66.1,31.01,East,96,0.0,3.0,85,0.00,,,0.00,Wunderground v.1.15,2013-02-06 04:58:00,